Starkville, MS

5:18 AM CST on February 26, 2017 (GMT -0600)
Bryan

Weather History for KSTF - November, 2011

Change the Weather History Date:

Saturday, November 5, 2011

  Actual Average Record
Temperature  
Mean Temperature 54 °F -  
Max Temperature 68 °F 66 °F 80 °F (2015)
Min Temperature 39 °F 43 °F 33 °F (2012)
Degree Days  
Heating Degree Days 12    
Growing Degree Days 4 (Base 50)    
Moisture  
Dew Point 45 °F    
Average Humidity 78    
Maximum Humidity 100    
Minimum Humidity 46    
Precipitation  
Precipitation 0.00 in - - ()
Sea Level Pressure  
Sea Level Pressure 30.16 in    
Wind  
Wind Speed 2 mph (SE)    
Max Wind Speed 10 mph    
Max Gust Speed 17 mph    
Visibility 5 miles    
Events Fog    
Averages and records for this station are not official NWS values.
T = Trace of Precipitation, MM = Missing Value Source: NWS Daily Summary

Daily Weather History Graph

Daily Weather History Graph

Search for Another Location

Airport or City:

Trip Planner

Search our weather history database for the weather conditions in past years. The results will help you decide how hot, cold, wet, or windy it might be!

Date:

Astronomy

Nov. 05, 2011 Rise Set
Actual Time 7:17 AM CDT 6:00 PM CDT
Civil Twilight 6:51 AM CDT 6:25 PM CDT
Nautical Twilight 6:22 AM CDT 6:55 PM CDT
Astronomical Twilight 5:52 AM CDT 7:24 PM CDT
Moon 3:06 PM CDT (11/5) 2:40 AM CDT (11/5)
Length of Visible Light 11h 34m
Length of Day
10h 42m
Waxing Gibbous, 78% of the Moon is Illuminated
Nov 5
Waxing Gibbous
Nov 10
Full
Nov 18
Last Quarter
Nov 25
New
Dec 2
First Quarter

Hourly Weather History & Observations

Time (CDT) Temp. Windchill Dew Point Humidity Pressure Visibility Wind Dir Wind Speed Gust Speed Precip Events Conditions
12:35 AM 39.2 °F - 39.2 °F 100% 30.18 in 1.5 mi Calm Calm - N/A   Mist
12:55 AM 41.0 °F - 41.0 °F 100% 30.18 in 0.5 mi Calm Calm - N/A Fog Fog
1:15 AM 42.8 °F - 42.8 °F 100% 30.18 in 1.8 mi Calm Calm - N/A   Mist
1:35 AM 41.0 °F - 41.0 °F 100% 30.18 in 0.2 mi Calm Calm - N/A Fog Fog
1:55 AM 42.8 °F - 42.8 °F 100% 30.17 in 0.2 mi Calm Calm - N/A Fog Fog
2:15 AM 42.8 °F - 42.8 °F 100% 30.17 in 0.2 mi Calm Calm - N/A Fog Fog
2:35 AM 42.8 °F - 42.8 °F 100% 30.17 in 0.2 mi Calm Calm - N/A Fog Fog
2:55 AM 42.8 °F - 42.8 °F 100% 30.17 in 0.2 mi Calm Calm - N/A Fog Fog
3:15 AM 42.8 °F - 42.8 °F 100% 30.18 in 0.2 mi Calm Calm - N/A Fog Fog
3:35 AM 42.8 °F - 42.8 °F 100% 30.18 in 0.2 mi Calm Calm - N/A Fog Fog
3:55 AM 42.8 °F 41.1 °F 42.8 °F 100% 30.18 in 0.2 mi North 3.5 mph - N/A Fog Fog
4:15 AM 44.6 °F - 44.6 °F 100% 30.17 in 0.2 mi Calm Calm - N/A Fog Fog
4:35 AM 44.6 °F - 44.6 °F 100% 30.17 in 0.2 mi Calm Calm - N/A Fog Fog
4:55 AM 42.8 °F - 42.8 °F 100% 30.17 in 0.2 mi Calm Calm - N/A Fog Fog
5:15 AM 42.8 °F - 42.8 °F 100% 30.17 in 0.2 mi Calm Calm - N/A Fog Fog
5:55 AM 42.8 °F - 42.8 °F 100% 30.18 in 0.2 mi Calm Calm - N/A Fog Fog
6:15 AM 41.0 °F - 41.0 °F 100% 30.18 in 0.2 mi Calm Calm - N/A Fog Fog
6:35 AM 41.0 °F - 41.0 °F 100% 30.18 in 0.5 mi Calm Calm - N/A Fog Fog
6:55 AM 41.0 °F - 41.0 °F 100% 30.19 in 0.2 mi Calm Calm - N/A Fog Fog
7:35 AM 41.0 °F - 41.0 °F 100% 30.19 in 0.5 mi Calm Calm - N/A Fog Fog
8:15 AM 42.8 °F - 42.8 °F 100% 30.20 in 0.2 mi Calm Calm - N/A Fog Fog
8:55 AM 42.8 °F 40.1 °F 42.8 °F 100% 30.21 in 0.5 mi East 4.6 mph - N/A Fog Fog
9:15 AM 44.6 °F 42.2 °F 44.6 °F 100% 30.21 in 1.0 mi ESE 4.6 mph - N/A   Overcast
9:35 AM 44.6 °F 43.1 °F 44.6 °F 100% 30.22 in 2.0 mi ESE 3.5 mph - N/A   Overcast
9:55 AM 46.4 °F 44.3 °F 46.4 °F 100% 30.22 in 2.0 mi SE 4.6 mph - N/A   Overcast
10:15 AM 46.4 °F 45.2 °F 46.4 °F 100% 30.23 in 2.5 mi ESE 3.5 mph - N/A   Overcast
11:15 AM 51.8 °F - 50.0 °F 94% 30.22 in 7.0 mi South 6.9 mph - N/A   Scattered Clouds
12:55 PM 62.6 °F - 48.2 °F 59% 30.19 in 10.0 mi South 6.9 mph - N/A   Clear
1:15 PM 62.6 °F - 48.2 °F 59% 30.18 in 10.0 mi South 6.9 mph - N/A   Clear
1:35 PM 64.4 °F - 48.2 °F 56% 30.17 in 10.0 mi SSE 9.2 mph - N/A   Clear
2:15 PM 66.2 °F - 46.4 °F 49% 30.15 in 10.0 mi South 10.4 mph 17.3 mph N/A   Clear
2:35 PM 66.2 °F - 46.4 °F 49% 30.14 in 10.0 mi SSE 9.2 mph - N/A   Clear
2:55 PM 68.0 °F - 46.4 °F 46% 30.14 in 10.0 mi SSE 10.4 mph - N/A   Clear
3:15 PM 68.0 °F - 46.4 °F 46% 30.13 in 10.0 mi South 8.1 mph - N/A   Clear
3:35 PM 68.0 °F - 46.4 °F 46% 30.13 in 10.0 mi SE 4.6 mph - N/A   Clear
3:55 PM 68.0 °F - 46.4 °F 46% 30.12 in 10.0 mi SSE 9.2 mph - N/A   Clear
4:15 PM 68.0 °F - 46.4 °F 46% 30.12 in 10.0 mi SE 6.9 mph - N/A   Clear
4:35 PM 68.0 °F - 46.4 °F 46% 30.12 in 10.0 mi SSE 6.9 mph - N/A   Clear
4:55 PM 66.2 °F - 46.4 °F 49% 30.12 in 10.0 mi SE 6.9 mph - N/A   Clear
5:15 PM 66.2 °F - 46.4 °F 49% 30.12 in 10.0 mi SE 9.2 mph - N/A   Clear
5:35 PM 64.4 °F - 46.4 °F 52% 30.12 in 10.0 mi SE 5.8 mph - N/A   Clear
5:55 PM 62.6 °F - 46.4 °F 55% 30.11 in 10.0 mi SE 4.6 mph - N/A   Clear
6:15 PM 60.8 °F - 46.4 °F 59% 30.12 in 10.0 mi ESE 3.5 mph - N/A   Clear
6:35 PM 59.0 °F - 46.4 °F 63% 30.12 in 10.0 mi ESE 3.5 mph - N/A   Clear
7:15 PM 57.2 °F - 46.4 °F 67% 30.13 in 10.0 mi ESE 5.8 mph - N/A   Clear
7:35 PM 59.0 °F - 46.4 °F 63% 30.14 in 10.0 mi ESE 5.8 mph - N/A   Clear
7:55 PM 57.2 °F - 46.4 °F 67% 30.14 in 10.0 mi SE 5.8 mph - N/A   Clear
8:15 PM 57.2 °F - 44.6 °F 63% 30.14 in 10.0 mi SE 5.8 mph - N/A   Clear
8:35 PM 57.2 °F - 44.6 °F 63% 30.15 in 10.0 mi SE 5.8 mph - N/A   Clear
8:55 PM 55.4 °F - 44.6 °F 67% 30.15 in 10.0 mi Calm Calm - N/A   Clear
9:15 PM 55.4 °F - 44.6 °F 67% 30.16 in 10.0 mi SE 5.8 mph - N/A   Clear
9:35 PM 55.4 °F - 44.6 °F 67% 30.17 in 10.0 mi SE 5.8 mph - N/A   Clear
9:55 PM 55.4 °F - 44.6 °F 67% 30.17 in 10.0 mi SE 8.1 mph - N/A   Clear
10:15 PM 57.2 °F - 44.6 °F 63% 30.17 in 10.0 mi SE 9.2 mph - N/A   Clear
10:35 PM 55.4 °F - 42.8 °F 63% 30.17 in 10.0 mi SE 9.2 mph - N/A   Clear
10:55 PM 55.4 °F - 42.8 °F 63% 30.17 in 10.0 mi SE 9.2 mph - N/A   Clear
11:15 PM 55.4 °F - 42.8 °F 63% 30.17 in 10.0 mi SE 11.5 mph 18.4 mph N/A   Clear
11:35 PM 55.4 °F - 41.0 °F 58% 30.17 in 10.0 mi SE 11.5 mph 16.1 mph N/A   Clear
11:55 PM 53.6 °F - 41.0 °F 62% 30.17 in 10.0 mi SE 10.4 mph 16.1 mph N/A   Clear